Time,TemperatureF,DewpointF,PressureIn,WindDirection,WindDirectionDegrees,WindSpeedMPH,WindSpeedGustMPH,Humidity,HourlyPrecipIn,Conditions,Clouds,dailyrainin,SoftwareType,DateUTC
2014-02-12 00:08:00,27.6,24.8,30.35,NNE,27,0.0,0.0,89,0.00,,,0.00,Wunderground v.1.12,2014-02-12 05:08:00,
2014-02-12 00:18:00,27.6,25.1,30.35,NNE,27,0.0,0.0,90,0.00,,,0.00,Wunderground v.1.12,2014-02-12 05:18:00,
2014-02-12 00:28:00,27.6,24.8,30.35,NNE,27,0.0,0.0,89,0.00,,,0.00,Wunderground v.1.12,2014-02-12 05:28:00,
2014-02-12 00:38:00,27.6,24.8,30.34,NNE,27,0.0,0.0,89,0.00,,,0.00,Wunderground v.1.12,2014-02-12 05:38:00,
2014-02-12 00:48:00,27.6,25.1,30.35,NNE,27,0.0,0.0,90,0.00,,,0.00,Wunderground v.1.12,2014-02-12 05:48:00,
2014-02-12 00:58:00,27.6,25.1,30.35,NNE,27,0.0,0.0,90,0.00,,,0.00,Wunderground v.1.12,2014-02-12 05:58:00,
2014-02-12 01:08:00,27.6,24.8,30.33,NNE,27,0.0,0.0,89,0.00,,,0.00,Wunderground v.1.12,2014-02-12 06:08:00,
2014-02-12 01:18:00,27.8,25.0,30.33,NNE,27,0.0,0.0,89,0.00,,,0.00,Wunderground v.1.12,2014-02-12 06:18:00,
2014-02-12 01:28:00,27.8,25.0,30.33,NNE,27,0.0,0.0,89,0.00,,,0.00,Wunderground v.1.12,2014-02-12 06:28:00,
2014-02-12 01:38:00,27.8,25.0,30.33,NNE,27,0.0,0.0,89,0.00,,,0.00,Wunderground v.1.12,2014-02-12 06:38:00,
2014-02-12 01:48:00,27.8,25.0,30.33,NNE,27,0.0,0.0,89,0.00,,,0.00,Wunderground v.1.12,2014-02-12 06:48:00,
2014-02-12 01:58:00,27.8,25.2,30.33,NNE,27,0.0,0.0,90,0.00,,,0.00,Wunderground v.1.12,2014-02-12 06:58:00,
2014-02-12 02:08:00,27.8,25.0,30.33,NNE,27,0.0,0.0,89,0.00,,,0.00,Wunderground v.1.12,2014-02-12 07:08:00,
2014-02-12 02:18:00,27.8,25.0,30.33,NNE,27,0.0,0.0,89,0.00,,,0.00,Wunderground v.1.12,2014-02-12 07:18:00,
2014-02-12 02:28:00,27.8,25.0,30.33,NNE,27,0.0,0.0,89,0.00,,,0.00,Wunderground v.1.12,2014-02-12 07:28:00,
2014-02-12 02:38:00,27.8,25.0,30.32,NNE,27,0.0,0.0,89,0.00,,,0.00,Wunderground v.1.12,2014-02-12 07:38:00,
2014-02-12 02:48:00,27.6,24.8,30.32,NNE,27,0.0,0.0,89,0.00,,,0.00,Wunderground v.1.12,2014-02-12 07:48:00,
2014-02-12 02:58:00,27.6,24.8,30.32,NNE,27,0.0,0.0,89,0.00,,,0.00,Wunderground v.1.12,2014-02-12 07:58:00,
2014-02-12 03:08:00,27.6,24.8,30.33,NNE,27,0.0,0.0,89,0.00,,,0.00,Wunderground v.1.12,2014-02-12 08:08:00,
2014-02-12 03:18:00,27.6,24.8,30.32,NNE,27,0.0,0.0,89,0.00,,,0.00,Wunderground v.1.12,2014-02-12 08:18:00,
2014-02-12 03:28:00,27.6,24.8,30.32,NNE,27,0.0,0.0,89,0.00,,,0.00,Wunderground v.1.12,2014-02-12 08:28:00,
2014-02-12 03:38:00,27.6,24.8,30.32,NNE,27,0.0,0.0,89,0.00,,,0.00,Wunderground v.1.12,2014-02-12 08:38:00,
2014-02-12 03:48:00,27.6,24.8,30.31,NNE,27,0.0,0.0,89,0.00,,,0.00,Wunderground v.1.12,2014-02-12 08:48:00,
2014-02-12 03:58:00,27.6,24.8,30.31,NNE,27,0.0,0.0,89,0.00,,,0.00,Wunderground v.1.12,2014-02-12 08:58:00,
2014-02-12 04:08:00,27.8,25.0,30.32,NNE,27,0.0,0.0,89,0.00,,,0.00,Wunderground v.1.12,2014-02-12 09:08:00,
2014-02-12 04:18:00,27.9,25.1,30.33,NNE,27,0.0,0.0,89,0.00,,,0.00,Wunderground v.1.12,2014-02-12 09:18:00,
2014-02-12 04:28:00,28.1,25.5,30.33,NNE,27,0.0,0.0,90,0.00,,,0.00,Wunderground v.1.12,2014-02-12 09:28:00,
2014-02-12 04:38:00,28.2,25.6,30.32,NNE,27,0.0,0.0,90,0.00,,,0.00,Wunderground v.1.12,2014-02-12 09:38:00,
2014-02-12 04:48:00,28.4,25.8,30.32,NNE,27,0.0,0.0,90,0.00,,,0.00,Wunderground v.1.12,2014-02-12 09:48:00,
2014-02-12 04:58:00,28.4,25.8,30.32,NNE,27,0.0,0.0,90,0.00,,,0.00,Wunderground v.1.12,2014-02-12 09:58:00,
2014-02-12 05:08:00,28.4,25.8,30.32,NNE,27,0.0,0.0,90,0.00,,,0.00,Wunderground v.1.12,2014-02-12 10:08:00,
2014-02-12 05:18:00,28.4,25.8,30.32,NNE,27,0.0,0.0,90,0.00,,,0.00,Wunderground v.1.12,2014-02-12 10:18:00,
2014-02-12 05:28:00,28.4,25.8,30.32,NNE,27,0.0,0.0,90,0.00,,,0.00,Wunderground v.1.12,2014-02-12 10:28:00,
2014-02-12 05:38:00,28.5,25.9,30.32,NNE,27,0.0,0.0,90,0.00,,,0.00,Wunderground v.1.12,2014-02-12 10:38:00,
2014-02-12 05:48:00,28.5,26.2,30.32,NNE,27,0.0,0.0,91,0.00,,,0.00,Wunderground v.1.12,2014-02-12 10:48:00,
2014-02-12 05:58:00,28.5,26.2,30.32,NNE,27,0.0,0.0,91,0.00,,,0.00,Wunderground v.1.12,2014-02-12 10:58:00,
2014-02-12 06:08:00,28.7,26.4,30.32,NNE,27,0.0,0.0,91,0.00,,,0.00,Wunderground v.1.12,2014-02-12 11:08:00,
2014-02-12 06:18:00,28.5,25.9,30.30,NNE,27,0.0,0.0,90,0.00,,,0.00,Wunderground v.1.12,2014-02-12 11:18:00,
2014-02-12 06:28:00,28.5,25.9,30.30,NNE,27,0.0,0.0,90,0.00,,,0.00,Wunderground v.1.12,2014-02-12 11:28:00,
2014-02-12 06:38:00,28.7,26.4,30.31,NNE,27,0.0,0.0,91,0.00,,,0.00,Wunderground v.1.12,2014-02-12 11:38:00,
2014-02-12 06:48:00,28.8,26.5,30.32,NNE,27,0.0,0.0,91,0.00,,,0.00,Wunderground v.1.12,2014-02-12 11:48:00,
2014-02-12 06:58:00,29.0,26.7,30.32,NNE,27,0.0,0.0,91,0.00,,,0.00,Wunderground v.1.12,2014-02-12 11:58:00,
2014-02-12 07:08:00,29.0,26.7,30.31,NNE,27,0.0,0.0,91,0.00,,,0.00,Wunderground v.1.12,2014-02-12 12:08:00,
2014-02-12 07:18:00,29.1,26.8,30.32,NNE,27,0.0,0.0,91,0.00,,,0.00,Wunderground v.1.12,2014-02-12 12:18:00,
2014-02-12 07:28:00,29.1,26.8,30.32,NNE,27,0.0,0.0,91,0.00,,,0.00,Wunderground v.1.12,2014-02-12 12:28:00,
2014-02-12 07:38:00,29.3,27.0,30.32,NNE,27,0.0,0.0,91,0.00,,,0.00,Wunderground v.1.12,2014-02-12 12:38:00,
2014-02-12 07:48:00,29.1,26.8,30.32,NNE,27,0.0,0.0,91,0.00,,,0.00,Wunderground v.1.12,2014-02-12 12:48:00,
2014-02-12 07:58:00,29.1,26.8,30.32,NNE,27,0.0,0.0,91,0.00,,,0.00,Wunderground v.1.12,2014-02-12 12:58:00,
2014-02-12 08:08:00,29.3,27.0,30.33,NNE,27,0.0,0.0,91,0.00,,,0.00,Wunderground v.1.12,2014-02-12 13:08:00,
2014-02-12 08:18:00,29.3,27.0,30.32,NNE,27,0.0,0.0,91,0.00,,,0.00,Wunderground v.1.12,2014-02-12 13:18:00,
2014-02-12 08:28:00,29.3,27.0,30.32,NNE,27,0.0,0.0,91,0.00,,,0.00,Wunderground v.1.12,2014-02-12 13:28:00,
2014-02-12 08:38:00,29.3,27.0,30.33,NNE,27,0.0,0.0,91,0.00,,,0.00,Wunderground v.1.12,2014-02-12 13:38:00,
2014-02-12 08:48:00,29.4,27.1,30.32,NNE,27,0.0,0.0,91,0.00,,,0.00,Wunderground v.1.12,2014-02-12 13:48:00,
2014-02-12 08:58:00,29.4,27.1,30.32,NNE,27,0.0,0.0,91,0.00,,,0.00,Wunderground v.1.12,2014-02-12 13:58:00,
2014-02-12 09:08:00,29.4,27.1,30.30,NNE,27,0.0,0.0,91,0.00,,,0.00,Wunderground v.1.12,2014-02-12 14:08:00,
2014-02-12 09:18:00,29.4,27.1,30.29,NNE,27,0.0,0.0,91,0.00,,,0.00,Wunderground v.1.12,2014-02-12 14:18:00,
2014-02-12 09:28:00,29.5,27.2,30.29,NNE,27,0.0,0.0,91,0.00,,,0.00,Wunderground v.1.12,2014-02-12 14:28:00,
2014-02-12 09:38:00,29.5,27.5,30.30,NNE,27,0.0,0.0,92,0.00,,,0.00,Wunderground v.1.12,2014-02-12 14:38:00,
2014-02-12 09:48:00,29.7,27.7,30.30,NNE,27,0.0,0.0,92,0.00,,,0.00,Wunderground v.1.12,2014-02-12 14:48:00,
2014-02-12 09:58:00,30.0,28.0,30.30,NNE,27,0.0,0.0,92,0.00,,,0.00,Wunderground v.1.12,2014-02-12 14:58:00,
2014-02-12 10:08:00,30.3,28.5,30.30,NNE,27,0.0,0.0,93,0.00,,,0.00,Wunderground v.1.12,2014-02-12 15:08:00,
2014-02-12 10:18:00,30.4,28.6,30.30,NNE,27,0.0,0.0,93,0.00,,,0.00,Wunderground v.1.12,2014-02-12 15:18:00,
2014-02-12 10:28:00,30.7,28.9,30.30,NNE,27,0.0,0.0,93,0.00,,,0.00,Wunderground v.1.12,2014-02-12 15:28:00,
2014-02-12 10:38:00,30.9,29.4,30.30,NNE,27,0.0,0.0,94,0.00,,,0.00,Wunderground v.1.12,2014-02-12 15:38:00,
2014-02-12 10:48:00,31.0,29.5,30.27,NNE,27,0.0,0.0,94,0.00,,,0.00,Wunderground v.1.12,2014-02-12 15:48:00,
2014-02-12 10:58:00,31.0,29.5,30.27,NNE,27,0.0,0.0,94,0.00,,,0.00,Wunderground v.1.12,2014-02-12 15:58:00,
2014-02-12 11:08:00,31.2,29.7,30.25,NNE,27,0.0,0.0,94,0.00,,,0.00,Wunderground v.1.12,2014-02-12 16:08:00,
2014-02-12 11:18:00,31.3,30.0,30.26,NNE,27,0.0,0.0,95,0.00,,,0.00,Wunderground v.1.12,2014-02-12 16:18:00,
2014-02-12 11:28:00,31.5,30.2,30.26,NNE,27,0.0,0.0,95,0.00,,,0.00,Wunderground v.1.12,2014-02-12 16:28:00,
2014-02-12 11:38:00,31.6,30.3,30.25,NNE,27,0.0,0.0,95,0.00,,,0.00,Wunderground v.1.12,2014-02-12 16:38:00,
2014-02-12 11:48:00,31.8,30.5,30.24,NNE,27,0.0,0.0,95,0.00,,,0.00,Wunderground v.1.12,2014-02-12 16:48:00,
2014-02-12 11:58:00,31.8,30.5,30.24,NNE,27,0.0,0.0,95,0.00,,,0.00,Wunderground v.1.12,2014-02-12 16:58:00,
2014-02-12 12:08:00,31.8,30.5,30.23,NNE,27,0.0,0.0,95,0.00,,,0.00,Wunderground v.1.12,2014-02-12 17:08:00,
2014-02-12 12:18:00,31.9,30.6,30.22,NNE,27,0.0,0.0,95,0.00,,,0.00,Wunderground v.1.12,2014-02-12 17:18:00,
2014-02-12 12:28:00,31.9,30.9,30.22,NNE,27,0.0,0.0,96,0.00,,,0.00,Wunderground v.1.12,2014-02-12 17:28:00,
2014-02-12 12:38:00,31.9,30.9,30.21,NNE,27,0.0,0.0,96,0.00,,,0.00,Wunderground v.1.12,2014-02-12 17:38:00,
2014-02-12 12:48:00,32.1,31.1,30.19,NNE,27,0.0,0.0,96,0.00,,,0.00,Wunderground v.1.12,2014-02-12 17:48:00,
2014-02-12 12:58:00,32.1,31.1,30.19,NNE,27,0.0,0.0,96,0.00,,,0.00,Wunderground v.1.12,2014-02-12 17:58:00,
2014-02-12 13:08:00,32.1,31.1,30.17,NNE,27,0.0,0.0,96,0.00,,,0.00,Wunderground v.1.12,2014-02-12 18:08:00,
2014-02-12 13:18:00,32.1,31.1,30.16,NNE,27,0.0,0.0,96,0.00,,,0.00,Wunderground v.1.12,2014-02-12 18:18:00,
2014-02-12 13:28:00,32.2,31.2,30.16,NNE,27,0.0,0.0,96,0.00,,,0.00,Wunderground v.1.12,2014-02-12 18:28:00,
2014-02-12 13:38:00,32.2,31.2,30.14,NNE,27,0.0,0.0,96,0.00,,,0.00,Wunderground v.1.12,2014-02-12 18:38:00,
2014-02-12 13:48:00,32.2,31.2,30.12,NNE,27,0.0,0.0,96,0.00,,,0.00,Wunderground v.1.12,2014-02-12 18:48:00,
2014-02-12 13:58:00,32.2,31.2,30.12,NNE,27,0.0,0.0,96,0.00,,,0.00,Wunderground v.1.12,2014-02-12 18:58:00,
2014-02-12 14:08:00,32.4,31.4,30.10,NNE,27,0.0,0.0,96,0.00,,,0.00,Wunderground v.1.12,2014-02-12 19:08:00,
2014-02-12 14:18:00,32.4,31.4,30.10,NNE,27,0.0,0.0,96,0.00,,,0.00,Wunderground v.1.12,2014-02-12 19:18:00,
2014-02-12 14:28:00,32.5,31.5,30.10,NNE,28,0.0,0.0,96,0.00,,,0.00,Wunderground v.1.12,2014-02-12 19:28:00,
2014-02-12 14:38:00,32.5,31.5,30.07,NNE,28,0.0,0.0,96,0.00,,,0.01,Wunderground v.1.12,2014-02-12 19:38:00,
2014-02-12 14:48:00,32.7,31.9,30.04,NNE,28,0.0,0.0,97,0.00,,,0.01,Wunderground v.1.12,2014-02-12 19:48:00,
2014-02-12 14:58:00,32.8,32.0,30.04,NNE,28,0.0,0.0,97,0.00,,,0.01,Wunderground v.1.12,2014-02-12 19:58:00,
2014-02-12 15:08:00,32.8,32.0,30.05,NNE,28,0.0,0.0,97,0.00,,,0.01,Wunderground v.1.12,2014-02-12 20:08:00,
2014-02-12 15:18:00,32.8,32.0,30.04,NNE,28,0.0,0.0,97,0.00,,,0.01,Wunderground v.1.12,2014-02-12 20:18:00,
2014-02-12 15:28:00,32.8,32.0,30.04,NNE,28,0.0,0.0,97,0.00,,,0.01,Wunderground v.1.12,2014-02-12 20:28:00,
2014-02-12 15:38:00,32.9,32.1,30.05,NNE,28,0.0,0.0,97,0.00,,,0.02,Wunderground v.1.12,2014-02-12 20:38:00,
2014-02-12 15:48:00,32.8,32.0,30.04,NNE,28,0.0,0.0,97,0.00,,,0.02,Wunderground v.1.12,2014-02-12 20:48:00,
2014-02-12 15:58:00,32.8,32.0,30.04,NNE,28,0.0,0.0,97,0.00,,,0.03,Wunderground v.1.12,2014-02-12 20:58:00,
2014-02-12 16:08:00,32.9,32.1,30.02,NNE,28,0.0,0.0,97,0.00,,,0.03,Wunderground v.1.12,2014-02-12 21:08:00,
2014-02-12 16:18:00,32.9,32.1,30.02,NNE,28,0.0,0.0,97,0.00,,,0.03,Wunderground v.1.12,2014-02-12 21:18:00,
2014-02-12 16:28:00,32.9,32.1,30.02,NNE,28,0.0,0.0,97,0.00,,,0.03,Wunderground v.1.12,2014-02-12 21:28:00,
2014-02-12 16:38:00,33.1,32.3,29.99,NNE,28,0.0,0.0,97,0.00,,,0.03,Wunderground v.1.12,2014-02-12 21:38:00,
2014-02-12 16:48:00,33.1,32.3,29.98,NE,48,0.0,0.0,97,0.00,,,0.04,Wunderground v.1.12,2014-02-12 21:48:00,
2014-02-12 16:58:00,33.2,32.7,29.98,NE,42,0.0,0.0,98,0.00,,,0.04,Wunderground v.1.12,2014-02-12 21:58:00,
2014-02-12 17:08:00,33.4,32.9,29.96,NE,40,0.0,0.0,98,0.00,,,0.04,Wunderground v.1.12,2014-02-12 22:08:00,
2014-02-12 17:18:00,33.5,33.0,29.95,NE,45,0.0,0.0,98,0.00,,,0.04,Wunderground v.1.12,2014-02-12 22:18:00,
2014-02-12 17:28:00,33.7,33.2,29.95,NE,47,1.0,1.0,98,0.00,,,0.05,Wunderground v.1.12,2014-02-12 22:28:00,
2014-02-12 17:38:00,33.8,33.3,29.95,NNE,30,2.0,6.0,98,0.00,,,0.05,Wunderground v.1.12,2014-02-12 22:38:00,
2014-02-12 17:48:00,34.1,33.6,29.95,NE,37,4.0,4.0,98,0.00,,,0.05,Wunderground v.1.12,2014-02-12 22:48:00,
2014-02-12 17:58:00,34.3,33.8,29.95,NNE,20,3.0,3.0,98,0.00,,,0.05,Wunderground v.1.12,2014-02-12 22:58:00,
2014-02-12 18:08:00,34.6,34.1,29.93,NNE,24,3.0,3.0,98,0.00,,,0.05,Wunderground v.1.12,2014-02-12 23:08:00,
2014-02-12 18:18:00,34.7,34.2,29.92,NE,36,3.0,3.0,98,0.00,,,0.05,Wunderground v.1.12,2014-02-12 23:18:00,
2014-02-12 18:28:00,34.9,34.4,29.92,North,5,2.0,3.0,98,0.00,,,0.05,Wunderground v.1.12,2014-02-12 23:28:00,
2014-02-12 18:38:00,35.2,34.7,29.92,NNE,17,3.0,4.0,98,0.00,,,0.06,Wunderground v.1.12,2014-02-12 23:38:00,
2014-02-12 18:48:00,35.2,34.7,29.91,NNE,27,3.0,3.0,98,0.00,,,0.06,Wunderground v.1.12,2014-02-12 23:48:00,
2014-02-12 18:58:00,35.5,35.2,29.91,ENE,57,3.0,3.0,99,0.00,,,0.06,Wunderground v.1.12,2014-02-12 23:58:00,
2014-02-12 19:08:00,35.8,35.5,29.89,NNE,32,3.0,3.0,99,0.00,,,0.06,Wunderground v.1.12,2014-02-13 00:08:00,
2014-02-12 19:18:00,36.0,35.7,29.88,NNE,32,3.0,4.0,99,0.00,,,0.07,Wunderground v.1.12,2014-02-13 00:18:00,
2014-02-12 19:28:00,36.3,36.0,29.88,North,10,4.0,6.0,99,0.00,,,0.07,Wunderground v.1.12,2014-02-13 00:28:00,
2014-02-12 19:38:00,36.8,36.5,29.86,NNE,33,4.0,4.0,99,0.00,,,0.07,Wunderground v.1.12,2014-02-13 00:38:00,
2014-02-12 19:48:00,37.2,36.9,29.84,NNE,24,4.0,4.0,99,0.00,,,0.07,Wunderground v.1.12,2014-02-13 00:48:00,
2014-02-12 19:58:00,37.6,37.3,29.84,North,5,3.0,3.0,99,0.00,,,0.07,Wunderground v.1.12,2014-02-13 00:58:00,
2014-02-12 20:08:00,37.6,37.3,29.84,North,351,2.0,2.0,99,0.00,,,0.08,Wunderground v.1.12,2014-02-13 01:08:00,
2014-02-12 20:18:00,38.6,38.6,29.83,NE,52,4.0,4.0,100,0.00,,,0.08,Wunderground v.1.12,2014-02-13 01:18:00,
2014-02-12 20:28:00,38.8,38.5,29.83,NNE,23,3.0,3.0,99,0.00,,,0.09,Wunderground v.1.12,2014-02-13 01:28:00,
2014-02-12 20:38:00,38.6,38.3,29.81,North,5,2.0,2.0,99,0.05,,,0.10,Wunderground v.1.12,2014-02-13 01:38:00,
2014-02-12 20:48:00,38.8,38.5,29.80,North,355,2.0,4.0,99,0.13,,,0.42,Wunderground v.1.12,2014-02-13 01:48:00,
2014-02-12 20:58:00,38.2,37.9,29.80,North,355,2.0,2.0,99,0.04,,,0.42,Wunderground v.1.12,2014-02-13 01:58:00,
2014-02-12 21:08:00,37.9,37.6,29.78,North,355,1.0,1.0,99,0.00,,,0.42,Wunderground v.1.12,2014-02-13 02:08:00,
2014-02-12 21:18:00,37.9,37.6,29.77,North,360,1.0,1.0,99,0.00,,,0.43,Wunderground v.1.12,2014-02-13 02:18:00,
2014-02-12 21:28:00,37.9,37.6,29.77,North,360,0.0,0.0,99,0.00,,,0.43,Wunderground v.1.12,2014-02-13 02:28:00,
2014-02-12 21:38:00,38.0,37.7,29.76,North,360,1.0,2.0,99,0.00,,,0.43,Wunderground v.1.12,2014-02-13 02:38:00,
2014-02-12 21:48:00,38.2,37.9,29.73,North,360,2.0,2.0,99,0.00,,,0.43,Wunderground v.1.12,2014-02-13 02:48:00,
2014-02-12 21:58:00,38.6,38.6,29.73,North,360,2.0,2.0,100,0.00,,,0.44,Wunderground v.1.12,2014-02-13 02:58:00,
2014-02-12 22:08:00,38.9,38.9,29.73,North,360,2.0,2.0,100,0.00,,,0.44,Wunderground v.1.12,2014-02-13 03:08:00,
2014-02-12 22:18:00,39.5,39.5,29.72,North,360,1.0,1.0,100,0.00,,,0.44,Wunderground v.1.12,2014-02-13 03:18:00,
2014-02-12 22:28:00,40.2,40.2,29.72,North,360,1.0,1.0,100,0.00,,,0.45,Wunderground v.1.12,2014-02-13 03:28:00,
2014-02-12 22:38:00,40.8,40.8,29.70,North,360,1.0,1.0,100,0.00,,,0.45,Wunderground v.1.12,2014-02-13 03:38:00,
2014-02-12 22:48:00,40.6,40.6,29.67,North,360,2.0,2.0,100,0.00,,,0.45,Wunderground v.1.12,2014-02-13 03:48:00,
2014-02-12 22:58:00,40.5,40.5,29.67,North,360,1.0,1.0,100,0.00,,,0.45,Wunderground v.1.12,2014-02-13 03:58:00,
2014-02-12 23:08:00,40.3,40.3,29.68,West,272,1.0,1.0,100,0.00,,,0.46,Wunderground v.1.12,2014-02-13 04:08:00,
2014-02-12 23:18:00,39.9,39.6,29.68,NNW,345,1.0,2.0,99,0.00,,,0.46,Wunderground v.1.12,2014-02-13 04:18:00,
2014-02-12 23:28:00,39.3,39.0,29.68,NW,319,1.0,1.0,99,0.00,,,0.46,Wunderground v.1.12,2014-02-13 04:28:00,
2014-02-12 23:38:00,39.1,38.8,29.67,West,277,1.0,2.0,99,0.00,,,0.47,Wunderground v.1.12,2014-02-13 04:38:00,
2014-02-12 23:48:00,38.9,38.9,29.67,West,277,1.0,1.0,100,0.00,,,0.47,Wunderground v.1.12,2014-02-13 04:48:00,
2014-02-12 23:58:00,38.8,38.8,29.67,West,277,0.0,0.0,100,0.00,,,0.47,Wunderground v.1.12,2014-02-13 04:58:00,